Find Starlink 4622

NORAD ID: 53648 Int'l Des: 2022-105 Owner: SPXS Country: US Constellation: starlink operational
LEOCIRCULARRETROGRADESSO

Live Position

Loading 3D Globe...

About Starlink 4622

Description loading...

Upcoming Passes

Passes for default location (London). Set your location on the main map for personalized predictions.

Altitude History

Loading altitude history...

Two-Line Element Set

1 53648U 22105A 26107.14195557 .00000383 00000-0 30779-4 0 9993
2 53648 97.6039 348.0617 0002034 84.0282 276.1177 15.05644480199023
Epoch: Apr 17, 2026 • Age: 12 hours

Current Status

Altitude 573.8 km
Velocity 7.57 km/s
Sub-Earth Point -60.02°S, 82.38°W
Launch Date Aug 31, 2022
Age 3.6 years
Type internet

Technical Details

Classification Payload
Mass 300.00 kg
Dry Mass 290.00 kg
Total Mass 300.00 kg
Length 0.20 m
Diameter 2.80 m
Span 9.00 m
Shape Box + pan
Manufacturer SPXS
Bus Type Starlink
Phase Status In Orbit
Owner/State SPXS/US

Most Searched